TimeCDT,TemperatureF,Dew PointF,Humidity,Sea Level PressureIn,VisibilityMPH,Wind Direction,Wind SpeedMPH,Gust SpeedMPH,PrecipitationIn,Events,Conditions,WindDirDegrees,DateUTC
12:15 AM,75.2,68.0,78,29.80,10.0,SSE,9.2,-,N/A,,Clear,160,2013-05-19 05:15:00
12:35 AM,75.2,68.0,78,29.83,10.0,South,9.2,-,N/A,,Clear,180,2013-05-19 05:35:00
12:55 AM,75.2,68.0,78,29.83,10.0,South,9.2,-,N/A,,Clear,170,2013-05-19 05:55:00
1:15 AM,73.4,68.0,83,29.81,10.0,SSE,10.4,-,N/A,,Clear,150,2013-05-19 06:15:00
1:35 AM,73.4,68.0,83,29.81,10.0,SSE,8.1,-,N/A,,Clear,160,2013-05-19 06:35:00
1:55 AM,73.4,68.0,83,29.80,10.0,SSE,9.2,-,N/A,,Clear,150,2013-05-19 06:55:00
2:15 AM,73.4,68.0,83,29.80,10.0,SSE,6.9,-,N/A,,Clear,150,2013-05-19 07:15:00
2:35 AM,71.6,68.0,88,29.80,10.0,SSE,6.9,-,N/A,,Clear,160,2013-05-19 07:35:00
2:55 AM,71.6,68.0,88,29.81,10.0,Calm,Calm,-,N/A,,Mostly Cloudy,0,2013-05-19 07:55:00
3:15 AM,71.6,59.0,64,29.83,10.0,NNW,6.9,-,N/A,,Overcast,330,2013-05-19 08:15:00
3:35 AM,69.8,57.2,64,29.83,10.0,Calm,Calm,-,N/A,,Overcast,0,2013-05-19 08:35:00
3:55 AM,69.8,57.2,64,29.83,10.0,North,3.5,-,N/A,Rain-Thunderstorm,Light Thunderstorms and Rain,350,2013-05-19 08:55:00
4:15 AM,69.8,59.0,68,29.85,10.0,WNW,6.9,-,N/A,Thunderstorm,Overcast,290,2013-05-19 09:15:00
4:35 AM,68.0,59.0,73,29.81,10.0,NNW,9.2,-,N/A,,Scattered Clouds,340,2013-05-19 09:35:00
4:55 AM,66.2,57.2,73,29.79,10.0,NNE,9.2,-,N/A,,Clear,30,2013-05-19 09:55:00
5:15 AM,64.4,57.2,77,29.75,10.0,NE,9.2,-,N/A,,Clear,40,2013-05-19 10:15:00
5:35 AM,64.4,57.2,77,29.74,10.0,ENE,8.1,-,N/A,,Clear,60,2013-05-19 10:35:00
5:55 AM,64.4,57.2,77,29.76,10.0,East,3.5,-,N/A,,Clear,80,2013-05-19 10:55:00
6:15 AM,64.4,57.2,77,29.78,10.0,SSE,3.5,-,N/A,,Clear,160,2013-05-19 11:15:00
6:35 AM,64.4,59.0,83,29.80,10.0,SSE,5.8,-,N/A,,Clear,150,2013-05-19 11:35:00
6:55 AM,66.2,59.0,78,29.82,10.0,SSE,5.8,-,N/A,,Scattered Clouds,160,2013-05-19 11:55:00
7:15 AM,68.0,60.8,78,29.84,10.0,South,5.8,-,N/A,,Mostly Cloudy,170,2013-05-19 12:15:00
7:35 AM,69.8,62.6,78,29.86,10.0,SSW,8.1,-,N/A,,Mostly Cloudy,200,2013-05-19 12:35:00
7:55 AM,71.6,64.4,78,29.85,10.0,SSW,10.4,-,N/A,,Scattered Clouds,200,2013-05-19 12:55:00
8:15 AM,69.8,60.8,73,29.86,10.0,WSW,10.4,17.3,N/A,Rain-Thunderstorm,Light Thunderstorms and Rain,240,2013-05-19 13:15:00
8:35 AM,68.0,60.8,78,29.82,10.0,NE,5.8,-,N/A,Rain-Thunderstorm,Light Thunderstorms and Rain,50,2013-05-19 13:35:00
8:55 AM,66.2,62.6,88,29.74,10.0,NNE,10.4,13.8,N/A,Rain,Light Rain,20,2013-05-19 13:55:00
9:15 AM,69.8,62.6,78,29.76,10.0,SE,9.2,-,N/A,,Scattered Clouds,130,2013-05-19 14:15:00
9:35 AM,69.8,62.6,78,29.76,10.0,SSE,5.8,-,N/A,,Clear,160,2013-05-19 14:35:00
9:55 AM,69.8,60.8,73,29.77,10.0,SSE,9.2,-,N/A,,Clear,160,2013-05-19 14:55:00
10:15 AM,71.6,62.6,73,29.77,10.0,SSE,8.1,-,N/A,,Scattered Clouds,150,2013-05-19 15:15:00
10:35 AM,71.6,62.6,73,29.77,10.0,SSE,8.1,-,N/A,,Mostly Cloudy,150,2013-05-19 15:35:00
10:55 AM,73.4,62.6,69,29.77,10.0,SE,10.4,-,N/A,,Overcast,140,2013-05-19 15:55:00
11:15 AM,75.2,62.6,65,29.76,10.0,SE,9.2,-,N/A,,Overcast,130,2013-05-19 16:15:00
11:55 AM,77.0,62.6,61,29.74,10.0,SE,11.5,-,N/A,,Overcast,140,2013-05-19 16:55:00
12:15 PM,77.0,62.6,61,29.73,10.0,SE,12.7,18.4,N/A,,Overcast,140,2013-05-19 17:15:00
12:35 PM,78.8,64.4,61,29.72,10.0,SE,16.1,23.0,N/A,,Scattered Clouds,140,2013-05-19 17:35:00
12:55 PM,80.6,64.4,58,29.71,10.0,SSE,13.8,24.2,N/A,,Clear,150,2013-05-19 17:55:00
1:15 PM,82.4,64.4,54,29.70,10.0,SSE,13.8,23.0,N/A,,Scattered Clouds,160,2013-05-19 18:15:00
1:35 PM,80.6,64.4,58,29.70,10.0,South,19.6,25.3,N/A,,Mostly Cloudy,170,2013-05-19 18:35:00
1:55 PM,80.6,66.2,61,29.69,10.0,South,13.8,24.2,N/A,,Mostly Cloudy,170,2013-05-19 18:55:00
2:15 PM,80.6,66.2,61,29.69,10.0,SSE,11.5,24.2,N/A,,Mostly Cloudy,160,2013-05-19 19:15:00
2:35 PM,82.4,66.2,58,29.68,10.0,South,13.8,19.6,N/A,,Overcast,170,2013-05-19 19:35:00
2:55 PM,82.4,64.4,54,29.67,10.0,SSE,15.0,23.0,N/A,,Overcast,160,2013-05-19 19:55:00
3:15 PM,82.4,64.4,54,29.66,10.0,SSE,12.7,21.9,N/A,,Overcast,150,2013-05-19 20:15:00
3:35 PM,84.2,62.6,48,29.65,10.0,SSE,17.3,25.3,N/A,,Mostly Cloudy,160,2013-05-19 20:35:00
3:55 PM,84.2,64.4,51,29.64,10.0,SSE,13.8,21.9,N/A,,Mostly Cloudy,150,2013-05-19 20:55:00
4:15 PM,82.4,64.4,54,29.62,10.0,SSE,15.0,20.7,N/A,,Scattered Clouds,160,2013-05-19 21:15:00
4:35 PM,86.0,64.4,48,29.61,10.0,South,15.0,19.6,N/A,,Scattered Clouds,170,2013-05-19 21:35:00
4:55 PM,86.0,62.6,45,29.63,10.0,South,16.1,20.7,N/A,,Mostly Cloudy,180,2013-05-19 21:55:00
5:15 PM,82.4,62.6,51,29.63,10.0,South,12.7,18.4,N/A,,Mostly Cloudy,170,2013-05-19 22:15:00
5:35 PM,82.4,62.6,51,29.58,10.0,SE,13.8,-,N/A,,Scattered Clouds,130,2013-05-19 22:35:00
5:55 PM,82.4,64.4,54,29.57,10.0,SE,11.5,19.6,N/A,,Clear,140,2013-05-19 22:55:00
6:15 PM,82.4,62.6,51,29.58,10.0,SSE,9.2,17.3,N/A,,Clear,160,2013-05-19 23:15:00
6:35 PM,82.4,62.6,51,29.58,10.0,SSE,8.1,-,N/A,,Clear,160,2013-05-19 23:35:00
6:55 PM,80.6,62.6,54,29.60,10.0,South,9.2,-,N/A,,Mostly Cloudy,170,2013-05-19 23:55:00
7:15 PM,80.6,62.6,54,29.60,10.0,South,8.1,-,N/A,Thunderstorm,Thunderstorm,180,2013-05-20 00:15:00
7:35 PM,69.8,62.6,78,29.64,7.0,South,10.4,27.6,0.01,Rain-Thunderstorm,Light Thunderstorms and Rain,190,2013-05-20 00:35:00
7:55 PM,68.0,60.8,78,29.64,10.0,South,10.4,-,0.03,Rain-Thunderstorm,Light Thunderstorms and Rain,190,2013-05-20 00:55:00
8:15 PM,68.0,62.6,83,29.66,10.0,South,8.1,-,0.01,,Scattered Clouds,180,2013-05-20 01:15:00
8:55 PM,62.6,59.0,88,29.73,2.0,SW,8.1,23.0,0.02,Rain-Thunderstorm,Heavy Thunderstorms and Rain,220,2013-05-20 01:55:00
9:15 PM,62.6,59.0,88,29.70,10.0,ESE,6.9,-,N/A,,Mostly Cloudy,120,2013-05-20 02:15:00
9:35 PM,62.6,59.0,88,29.70,10.0,East,5.8,-,0.01,Rain,Light Rain,100,2013-05-20 02:35:00
9:55 PM,62.6,59.0,88,29.68,10.0,ESE,5.8,-,0.02,Rain,Light Rain,120,2013-05-20 02:55:00
10:35 PM,60.8,57.2,88,29.74,7.0,SW,10.4,32.2,N/A,Rain-Thunderstorm,Light Thunderstorms and Rain,220,2013-05-20 03:35:00
10:55 PM,62.6,57.2,82,29.84,5.0,SSW,23.0,34.5,0.01,Rain-Thunderstorm,Heavy Thunderstorms and Rain,200,2013-05-20 03:55:00
11:15 PM,59.0,55.4,88,29.73,10.0,SSW,9.2,13.8,N/A,Rain-Thunderstorm,Light Thunderstorms and Rain,210,2013-05-20 04:15:00
11:35 PM,59.0,57.2,94,29.70,10.0,SE,12.7,20.7,N/A,Rain-Thunderstorm,Light Thunderstorms and Rain,140,2013-05-20 04:35:00
11:55 PM,59.0,55.4,88,29.73,10.0,SE,10.4,-,N/A,,Light Drizzle,130,2013-05-20 04:55:00